Hochkonig, Austria 16 day weather forecast

Slopes altitude range 800 m - 1900m

Number of lifts: 34 Pistes: 150km

In some cases the lift and piste totals shown are for the ski domain (e.g. Three Valleys) rather than individual resort (e.g. Courchevel)

Overview

The 16 day weather forecast is fully updated 4 times every day.

    • Thu 21 FEB 2019
    • Thu 21
    • 6C 9C
    • Fri 22 FEB 2019
    • Fri 22
    • 5C 10C
    • Sat 23 FEB 2019
    • Sat 23
    • -2C 4C
    • Sun 24 FEB 2019
    • Sun 24
    • -1C 7C
    • Mon 25 FEB 2019
    • Mon 25
    • 0C 10C
    • Tue 26 FEB 2019
    • Tue 26
    • 1C 11C
    • Wed 27 FEB 2019
    • Wed 27
    • 3C 13C
    • Thu 28 FEB 2019
    • Thu 28
    • 2C 13C
    • Fri 01 MAR 2019
    • Fri 01
    • 5C 10C
    • Sat 02 MAR 2019
    • Sat 02
    • 2C 9C
    • Sun 03 MAR 2019
    • Sun 03
    • 2C 4C
    • Mon 04 MAR 2019
    • Mon 04
    • 1C 10C
    • Tue 05 MAR 2019
    • Tue 05
    • 4C 9C
    • Wed 06 MAR 2019
    • Wed 06
    • 4C 6C
    • Thu 07 MAR 2019
    • Thu 07
    • -3C 2C
    • Fri 08 MAR 2019
    • Fri 08
    • -3C 1C

Date:

Time Type 0°C level Temp Chill Snow Cloud Speed Gust Dir Press
18:00 1568m 9°C 9_4 0cm 99% 4mph 5mph 1028mB
21:00 1547m 4°C 4_6 0cm 62% 6mph 17mph 1029mB
0:00 1589m 4°C 4_8 0cm 59% 8mph 21mph 1029mB
3:00 1672m 5°C 5_12 0cm 100% 12mph 26mph 1028mB
6:00 1721m 5°C 5_10 0cm 100% 10mph 22mph 1028mB
9:00 1582m 5°C 5_9 0cm 74% 9mph 17mph 1030mB
12:00 1468m 10°C 10_8 0cm 80% 8mph 14mph 1032mB
15:00 1441m 10°C 10_7 0cm 55% 7mph 13mph 1034mB
18:00 1250m 10°C 10_5 0cm 34% 5mph 10mph 1037mB
21:00 562m 0°C 0_5 0cm 1% 5mph 10mph 1040mB
0:00 151m -2°C -2_4 0cm 2% 4mph 10mph 1041mB
3:00 67m -2°C -2_5 0cm 0% 5mph 12mph 1041mB
6:00 70m -2°C -2_6 0cm 0% 6mph 15mph 1041mB
9:00 481m -2°C -2_8 0cm 0% 8mph 13mph 1041mB
12:00 714m 4°C 4_9 0cm 1% 9mph 12mph 1040mB
15:00 800m 4°C 4_7 0cm 19% 7mph 11mph 1039mB
18:00 354m 4°C 4_6 0cm 12% 6mph 15mph 1041mB
21:00 248m -1°C -1_6 0cm 8% 6mph 15mph 1041mB
0:00 220m -1°C -1_5 0cm 8% 5mph 13mph 1041mB
3:00 198m -1°C -1_4 0cm 2% 4mph 7mph 1040mB
6:00 190m -1°C -1_4 0cm 1% 4mph 5mph 1040mB
9:00 1611m -1°C -1_5 0cm 6% 5mph 8mph 1039mB
12:00 1921m 7°C 7_4 0cm 3% 4mph 6mph 1038mB
15:00 2046m 8°C 8_2 0cm 0% 2mph 3mph 1037mB
18:00 1903m 8°C 8_2 0cm 0% 2mph 2mph 1040mB
21:00 1840m 1°C 1_2 0cm 1% 2mph 2mph 1041mB
0:00 1771m 1°C 1_2 0cm 26% 2mph 3mph 1041mB
3:00 1892m 0°C 0_2 0cm 10% 2mph 3mph 1041mB
6:00 2023m 0°C 0_3 0cm 5% 3mph 3mph 1041mB
9:00 2264m 0°C 0_3 0cm 0% 3mph 6mph 1041mB
12:00 2332m 10°C 10_5 0cm 0% 5mph 9mph 1038mB
15:00 2389m 11°C 11_3 0cm 0% 3mph 7mph 1037mB
18:00 2301m 11°C 11_4 0cm 0% 4mph 5mph 1039mB
21:00 2796m 4°C 4_3 0cm 51% 3mph 4mph 1039mB
0:00 2889m 3°C 3_2 0cm 27% 2mph 3mph 1038mB
3:00 2641m 2°C 2_1 0cm 4% 1mph 1mph 1037mB
6:00 2751m 1°C 1_1 0cm 16% 1mph 1mph 1036mB
9:00 2551m 1°C 1_3 0cm 47% 3mph 3mph 1035mB
12:00 2784m 11°C 11_5 0cm 30% 5mph 6mph 1033mB
15:00 2879m 12°C 12_5 0cm 16% 5mph 9mph 1031mB
18:00 2864m 12°C 12_3 0cm 21% 3mph 3mph 1033mB
21:00 2690m 5°C 5_2 0cm 28% 2mph 2mph 1033mB
0:00 2615m 4°C 4_2 0cm 28% 2mph 2mph 1032mB
3:00 2543m 3°C 3_1 0cm 35% 1mph 1mph 1031mB
6:00 2609m 2°C 2_1 0cm 48% 1mph 1mph 1032mB
9:00 2740m 3°C 3_2 0cm 69% 2mph 4mph 1031mB
12:00 3150m 13°C 13_5 0cm 40% 5mph 8mph 1028mB
15:00 3236m 13°C 13_5 0cm 0% 5mph 9mph 1026mB
18:00 3248m 13°C 13_5 0cm 0% 5mph 6mph 1027mB
21:00 3248m 6°C 6_5 0cm 0% 5mph 6mph 1026mB
0:00 3219m 5°C 5_4 0cm 0% 4mph 5mph 1024mB
3:00 3158m 3°C 3_1 0cm 0% 1mph 1mph 1023mB
6:00 3103m 2°C 2_1 0cm 1% 1mph 1mph 1023mB
9:00 3123m 2°C 2_4 0cm 0% 4mph 10mph 1022mB
12:00 3044m 13°C 13_10 0cm 0% 10mph 19mph 1020mB
15:00 2737m 14°C 14_10 0cm 0% 10mph 23mph 1019mB
18:00 2590m 14°C 14_7 0cm 0% 7mph 23mph 1021mB
21:00 2257m 7°C 7_8 0cm 0% 8mph 26mph 1023mB
0:00 2068m 6°C 6_7 0cm 0% 7mph 22mph 1024mB
3:00 2032m 5°C 5_7 0cm 4% 7mph 26mph 1023mB
6:00 1653m 5°C 5_5 0cm 40% 5mph 23mph 1024mB
9:00 2154m 5°C 5_10 0cm 68% 10mph 21mph 1024mB
12:00 2182m 10°C 10_9 0cm 61% 9mph 16mph 1022mB
15:00 2236m 10°C 10_7 0cm 24% 7mph 14mph 1021mB
18:00 2260m 10°C 10_5 0cm 29% 5mph 6mph 1022mB
21:00 2037m 4°C 4_6 0cm 41% 6mph 20mph 1023mB
0:00 2009m 3°C 3_6 0cm 44% 6mph 16mph 1023mB
3:00 2070m 3°C 3_6 0cm 60% 6mph 15mph 1022mB
6:00 1993m 2°C 2_5 0cm 54% 5mph 7mph 1021mB
9:00 2253m 2°C 2_8 0cm 93% 8mph 21mph 1019mB
12:00 2282m 9°C 9_14 0cm 96% 14mph 29mph 1015mB
15:00 2011m 11°C 11_15 0cm 91% 15mph 35mph 1012mB
18:00 2318m 11°C 11_15 0cm 61% 15mph 40mph 1010mB
21:00 1933m 9°C 9_25 0cm 74% 25mph 55mph 1008mB
0:00 1208m 4°C 4_16 0cm 83% 16mph 43mph 1010mB
3:00 1021m 2°C 2_14 1cm 100% 14mph 31mph 1014mB
6:00 928m 2°C 2_18 1cm 81% 18mph 39mph 1014mB
9:00 1006m 2°C 2_19 1cm 93% 19mph 39mph 1015mB
12:00 1087m 4°C 4_21 1cm 95% 21mph 40mph 1016mB
Morning 0.0572917mm 0.375 1008m 1°C 1_9 3cm 52% 9mph 29mph 1021mB
Afternoon 0.0208333mm 0 2542m 10°C 10_11 0cm 81% 11mph 20mph 1011mB
Morning 0.265625mm 0 1692m 6°C 6_11 0cm 94% 11mph 26mph 1009mB
Afternoon 0.161458mm 0.5625 1504m 9°C 9_18 0cm 79% 18mph 35mph 1008mB
Morning 0.09375mm 0.375 1522m 3°C 3_9 0cm 81% 9mph 28mph 1003mB
Afternoon 0.213542mm 0.75 1233m 6°C 6_24 6cm 70% 24mph 43mph 1004mB
Morning 0.0729167mm 0.75 637m 0°C 0_14 6cm 74% 14mph 29mph 1013mB
Afternoon 0.0260417mm 0.125 760m 2°C 2_15 1cm 63% 15mph 24mph 1019mB
Morning 0.0520833mm 0.5625 157m -3°C -3_8 4cm 65% 8mph 20mph 1026mB
Afternoon 0.151042mm 0.9375 674m 1°C 1_12 8cm 79% 12mph 19mph 1031mB
Morning 0.00520833mm 0.0625 0m -5°C -5_2 0cm 18% 2mph 3mph 1036mB
Afternoon 0mm 0 893m 4°C 4_8 0cm 26% 8mph 14mph 1029mB

16 day outlook at a glance

Forecast issued: 21/02/2019 19:07:11

Chat

Your comments and questions. In a resort? Let us know what it's like!


Characters left 250

For terms and conditions see Readers Comments on the Cookie and privacy policy page.